SCP
6 5 3 2 2 2 1 1 1 1 1 1 2 2 2 2 2 1 1 1 1 1 1 1 1 1 1 1 1 1 1 1 1 1 0 0 0 0 0 0 0 0 0
6 5 3 2 2 2 1 1 1 2 2 2 2 2 3 2 2 2 2 1 1 1 1 1 1 1 1 1 1 1 1 1 1 1 1 0 0 0 0 0 0 0 0
7 5 3 2 2 2 2 2 2 2 2 3 3 4 4 4 3 2 2 2 1 1 1 1 1 1 1 1 1 1 1 1 1 1 1 1 0 0 0 0 0 0 0
6 4 3 2 2 2 2 2 2 2 3 3 4 5 5 5 4 3 2 2 1 1 1 1 1 1 1 1 1 1 1 1 1 1 1 1 0 0 0 0 0 0 0
6 5 3 3 3 3 3 2 2 3 3 3 4 5 5 4 3 2 2 2 1 1 1 1 1 1 1 1 1 1 1 1 1 1 1 1 1 0 0 0 0 0 0
7 6 4 3 3 3 3 3 3 3 4 4 4 4 4 3 3 2 2 2 1 1 1 1 1 1 1 1 1 1 1 1 1 1 1 1 1 1 1 0 0 0 0
7 6 4 3 3 3 3 4 4 4 4 3 3 3 3 3 2 2 2 2 2 2 1 1 1 1 1 1 1 1 1 1 1 1 1 1 1 1 1 0 0 0 0
5 4 3 2 3 3 3 4 4 4 4 3 3 3 2 2 1 1 1 2 2 2 2 1 1 0 0 1 1 1 1 1 1 1 1 1 1 1 1 0 0 0 0
4 3 3 3 3 3 3 3 4 4 4 3 2 2 2 2 1 1 1 1 1 1 1 1 1 0 0 0 0 0 1 1 1 1 1 1 1 1 1 1 1 0 0
4 3 3 3 3 3 3 3 3 3 3 3 2 2 2 2 1 1 1 1 1 1 1 1 1 0 0 0 0 0 0 0 1 1 1 1 1 1 1 1 1 1 0
3 3 2 2 3 3 3 3 3 3 3 3 2 1 1 1 1 1 1 1 1 1 1 1 0 0 0 0 1 1 0 0 0 0 0 1 1 1 1 1 1 1 1
2 2 2 2 2 3 3 3 3 3 3 2 2 1 1 1 1 1 1 1 1 0 0 0 0 0 0 0 1 1 1 0 0 0 0 0 1 1 1 1 1 1 1
2 2 3 2 2 3 3 3 3 3 3 3 2 1 1 1 1 1 1 1 1 0 0 0 0 0 0 0 0 1 1 1 0 0 0 1 1 1 1 1 0 0 0
3 4 4 3 2 2 3 2 2 3 3 3 2 1 1 1 1 1 1 1 1 1 1 1 0 0 0 0 0 0 0 0 0 0 0 1 1 1 1 1 0 0 0
3 4 3 3 2 2 2 2 1 1 2 2 1 1 1 1 1 1 1 1 1 1 1 1 1 1 1 1 0 0 0 0 0 0 0 0 0 1 1 1 1 0 0
2 3 2 2 2 2 2 2 1 1 1 1 1 1 1 1 1 1 2 2 2 2 2 2 2 2 1 1 0 0 0 0 0 0 0 0 0 0 0 0 0 0 0
2 2 2 2 1 1 2 1 1 1 1 1 1 1 1 1 1 2 2 2 2 3 3 3 3 2 1 0 0 0 0 0 0 0 0 0 0 0 0 0 0 0 0
2 2 2 2 1 1 1 1 1 1 1 1 1 2 2 2 2 2 3 3 3 4 4 3 2 1 0 0 0 0 0 0 0 0 0 0 0 0 0 0 0 0 0
2 2 2 2 1 1 1 1 1 1 1 1 1 2 2 2 2 3 3 3 4 4 3 2 1 0 0 0 0 0 0 0 0 0 0 0 0 0 0 0 0 0 0
1 1 2 2 2 1 1 1 1 1 1 1 1 2 2 2 2 3 3 3 3 3 1 0 0 0 0 0 0 0 0 0 0 0 0 0 0 0 0 0 0 0 0
2 2 2 2 2 1 0 0 1 1 1 1 2 2 2 2 2 3 3 2 2 1 0 0 0 0 0 0 0 0 0 0 0 0 0 0 0 0 0 0 0 0 0
2 2 2 2 1 1 0 0 0 1 1 1 2 2 2 2 2 2 2 1 0 0 0 0 0 0 0 0 0 0 0 0 0 0 0 0 0 0 0 0 0 0 0
2 2 2 2 1 1 0 0 0 0 1 1 1 1 1 1 1 1 1 0 0 0 0 0 0 0 0 0 0 0 0 0 0 0 0 0 0 0 0 0 0 0 0
2 2 1 1 1 1 0 0 0 0 0 1 0 0 0 0 0 0 0 0 0 0 0 0 0 0 0 0 0 0 0 0 0 0 0 0 0 0 0 0 0 0 0
2 2 1 1 1 1 0 0 0 0 0 0 0 0 0 0 0 0 0 0 0 0 0 0 0 0 0 0 0 0 0 0 0 0 0 0 0 0 0 0 0 0 0
3 2 1 1 1 1 0 0 0 0 0 0 0 0 0 0 0 0 0 0 0 0 0 0 0 0 0 0 0 0 0 0 0 0 0 0 0 0 0 0 0 0 0
Wind_Speed
8 6 7 8 9 8 9 10 9 8 7 5 5 5 5 4 4 5 6 7 7 7 6 5 5 5 4 5 5 3 3 2 2 1 1 2 2 4 4 5 5 6 7
6 6 7 8 9 10 10 10 10 9 8 6 5 3 3 3 4 4 5 7 7 7 7 7 6 6 4 5 5 4 3 2 3 3 1 2 3 3 4 4 5 6 5
9 9 9 10 9 10 10 10 9 8 8 6 4 2 2 1 2 3 4 6 7 7 7 7 6 6 6 5 6 6 6 4 3 2 3 3 3 2 2 3 4 4 5
8 8 8 8 9 9 8 8 8 7 7 7 6 6 5 5 5 4 4 5 7 7 7 7 7 6 5 6 6 6 4 4 3 3 2 2 3 2 2 2 2 4 5
7 7 7 7 7 7 7 7 7 7 7 7 8 7 6 5 3 3 5 5 5 6 6 6 7 7 6 6 6 6 6 5 4 4 3 2 1 2 2 3 2 2 3
5 5 4 4 5 5 6 6 6 6 6 7 7 8 7 6 5 5 5 5 3 4 5 6 6 7 6 6 6 6 7 6 5 4 4 4 3 4 4 4 3 3 2
5 5 5 5 5 5 6 6 6 5 6 6 6 6 7 7 7 6 6 5 3 4 6 6 6 5 6 7 6 6 6 7 6 6 5 4 4 3 3 3 3 3 2
5 5 6 6 6 6 5 5 6 5 5 5 5 4 4 4 4 5 5 5 4 4 5 6 6 6 6 6 6 5 6 5 6 7 6 4 4 4 4 4 3 2 2
4 4 5 5 5 5 5 6 5 4 4 5 4 3 3 3 3 3 3 3 3 4 5 5 5 6 6 6 6 5 6 5 5 6 6 5 4 4 4 3 4 4 3
3 4 4 4 4 4 4 5 5 4 3 3 3 3 2 3 2 2 2 3 3 3 4 5 5 5 5 5 5 4 5 6 5 4 5 5 3 3 3 3 3 3 4
4 4 4 4 4 4 4 4 4 3 3 3 3 2 2 2 2 2 2 2 2 2 3 4 4 4 4 5 5 5 5 6 5 4 5 5 4 3 3 3 3 3 3
4 4 4 4 4 4 4 4 3 3 3 3 3 2 2 2 1 1 1 1 1 1 2 2 3 3 3 3 4 5 5 5 5 5 5 5 4 4 3 3 3 3 3
5 4 4 4 4 4 3 3 3 2 3 3 3 2 2 2 1 1 0 1 1 0 1 1 2 2 2 3 3 4 4 4 4 4 4 4 4 4 3 3 3 2 2
5 4 4 4 3 3 3 3 3 3 3 4 4 3 2 2 2 1 1 1 1 1 1 1 1 1 1 1 2 3 3 2 2 2 2 2 3 4 3 3 2 2 2
4 4 4 4 4 3 3 3 3 2 3 4 3 2 2 2 3 3 3 3 3 2 2 3 3 2 2 1 2 3 3 3 3 2 2 1 2 3 2 2 2 2 2
5 4 4 4 4 3 3 3 3 3 3 4 3 3 3 4 4 4 4 4 4 4 5 4 4 4 3 4 5 5 4 3 3 2 2 2 3 4 5 5 5 4 3
5 5 5 4 4 3 3 3 3 4 4 4 3 4 4 4 4 4 5 5 4 5 5 5 5 5 6 7 7 8 5 5 4 3 3 3 4 4 4 6 7 7 7
5 4 3 3 3 3 4 4 4 4 5 4 4 4 5 5 5 5 5 5 5 5 5 5 6 6 7 9 9 9 7 6 6 5 4 4 5 4 5 6 7 6 6
5 4 4 3 3 4 4 5 5 5 5 5 4 4 5 5 5 5 5 5 5 6 6 6 7 8 7 9 9 8 6 7 8 7 7 6 6 6 7 7 7 7 6
5 5 5 5 5 4 4 6 5 5 5 4 4 5 5 5 5 5 5 5 6 6 7 8 8 8 7 9 9 7 6 7 7 7 8 11 9 8 8 7 7 7 5
7 6 7 6 5 4 5 7 6 5 4 5 6 6 6 6 5 6 6 7 7 8 8 9 8 8 8 10 11 9 6 6 7 7 7 8 13 13 12 10 7 7 6
7 7 7 6 5 5 6 7 6 5 6 7 7 7 7 6 6 7 7 7 7 8 7 8 8 7 7 9 11 13 11 8 8 7 6 7 13 14 13 10 10 10 8
7 6 8 8 6 5 6 7 5 5 7 8 8 8 8 8 7 7 7 6 6 6 6 6 6 6 6 7 12 13 13 12 8 7 11 11 12 12 10 13 12 8 6
7 6 8 8 6 5 6 5 5 6 8 8 8 7 8 8 8 7 6 6 5 5 5 6 6 5 5 5 5 6 7 10 9 7 10 12 13 11 10 9 8 6 6
6 6 7 7 7 6 6 5 5 6 8 9 8 7 8 8 9 8 7 6 5 3 5 4 4 5 5 4 6 5 5 5 5 6 6 6 6 7 6 6 6 6 5
6 7 7 7 6 6 6 5 4 6 9 8 7 6 6 6 7 8 9 14 11 14 13 9 7 7 7 9 12 13 12 10 8 7 6 6 6 5 5 5 5 5 5
Wind_Direction
203 185 183 182 181 185 186 188 190 188 175 174 182 188 204 205 202 207 208 201 197 194 192 200 195 192 197 197 189 178 186 199 154 124 326 307 262 244 236 230 227 228 227
191 188 180 185 186 189 191 190 193 189 186 189 185 184 185 194 204 204 204 204 199 196 198 197 195 193 194 194 189 179 174 189 166 151 133 315 317 279 245 229 227 232 227
198 196 191 195 191 194 194 194 193 189 189 182 164 151 134 130 183 200 209 210 203 201 202 197 195 193 191 199 198 191 183 188 190 175 158 172 236 291 296 248 237 231 225
201 197 195 197 197 196 190 190 184 183 184 176 176 179 186 199 206 202 206 209 207 204 202 199 196 197 198 202 204 197 190 178 191 196 202 191 173 186 296 301 258 242 235
197 199 200 197 194 185 182 184 178 184 184 185 188 190 200 208 203 202 202 211 209 205 204 202 199 200 202 205 202 192 194 192 192 187 179 188 188 185 196 269 292 277 247
192 191 187 167 176 178 174 173 177 189 185 190 196 200 201 202 201 207 207 211 209 207 207 206 204 203 202 204 204 201 201 202 202 198 187 179 181 193 194 223 249 267 272
182 173 162 167 175 176 174 173 178 192 191 195 203 208 208 205 209 209 209 205 205 208 212 211 206 205 208 208 203 202 207 203 204 206 207 204 205 183 184 202 228 249 274
179 169 167 167 168 177 174 170 178 189 188 196 208 209 203 204 212 206 201 203 208 213 210 210 211 210 210 212 204 205 208 204 210 214 208 208 215 201 193 191 190 229 265
164 158 154 153 158 163 166 169 171 178 184 192 193 194 193 201 213 210 203 203 208 213 209 209 216 216 211 208 200 206 208 201 208 212 208 212 215 207 209 202 193 194 228
136 138 138 145 153 157 149 148 160 172 178 178 187 188 192 196 202 199 209 208 215 219 209 209 214 213 209 206 203 206 206 202 210 207 205 210 212 208 207 207 204 203 209
145 142 138 137 131 123 130 143 150 148 155 173 180 173 180 186 183 199 214 215 215 207 211 207 205 207 209 206 202 209 203 204 208 203 202 212 206 204 207 202 199 203 197
137 132 126 119 118 123 130 137 143 150 159 158 153 157 159 151 160 195 210 192 198 209 208 198 199 207 209 204 200 207 203 201 204 202 199 212 204 202 202 197 204 206 202
125 115 112 118 124 129 131 128 130 136 132 127 131 132 131 133 147 151 106 112 140 161 171 162 189 206 203 198 201 198 194 197 200 197 200 208 196 201 198 195 201 205 195
128 122 120 120 124 128 125 118 120 122 123 121 124 129 138 144 135 118 94 83 79 80 81 90 95 117 138 162 172 160 156 154 147 147 168 187 194 201 197 197 197 179 161
137 138 138 133 127 120 111 110 110 110 113 113 110 116 116 110 101 90 79 74 73 72 69 68 62 61 70 93 123 128 127 124 115 103 104 111 118 125 140 151 162 157 151
147 141 136 132 134 133 126 118 113 114 110 111 113 106 99 97 95 88 79 74 69 66 65 64 65 64 61 77 92 106 106 106 110 105 91 80 75 87 92 95 102 115 129
152 146 147 146 149 142 127 117 112 113 111 108 106 101 97 91 86 86 77 69 64 69 70 67 68 65 58 65 76 84 90 85 80 78 74 73 69 78 85 83 80 75 72
145 138 135 131 122 115 112 109 109 115 112 106 102 100 100 95 89 87 81 72 66 65 66 61 69 70 60 62 71 79 81 77 67 62 71 81 69 67 83 86 80 70 57
133 130 125 120 112 113 113 108 105 104 102 101 99 102 104 103 99 96 92 89 85 76 69 65 65 67 56 51 65 79 81 75 63 55 55 67 74 70 88 93 88 75 61
111 109 107 105 101 99 111 110 104 99 98 100 97 97 99 102 102 102 97 88 86 84 79 69 61 64 57 47 58 74 85 80 72 62 54 54 64 70 80 89 90 84 68
107 104 101 96 92 98 107 103 96 92 89 93 94 93 93 93 96 96 90 91 90 86 82 77 64 57 53 53 57 66 81 87 82 71 60 53 62 67 66 70 74 81 83
109 107 104 94 83 90 103 100 96 95 94 93 90 86 85 88 90 92 89 90 93 91 85 81 70 55 49 52 58 63 70 79 83 76 68 63 64 66 64 67 70 73 75
112 106 107 99 86 82 99 106 102 102 101 94 89 85 83 79 81 89 94 90 88 92 90 85 78 62 52 52 59 65 70 74 81 79 78 71 66 66 63 59 59 59 62
114 113 111 106 98 89 89 99 105 104 106 102 96 90 89 83 74 70 73 82 83 92 93 92 89 79 64 53 55 65 72 74 79 79 73 68 63 63 59 53 50 51 54
115 112 111 110 106 100 93 94 105 109 106 102 98 92 88 91 82 70 57 64 55 77 102 99 100 96 80 53 71 85 80 82 90 87 69 60 57 56 53 51 49 47 46
109 106 102 101 100 98 94 89 97 113 113 107 102 99 99 97 98 95 78 57 66 68 71 80 92 78 88 90 82 80 79 81 88 80 72 66 64 63 59 56 50 44 42